Simultaneous Nadir Overpasses (SNOs) Predictions

Prediction of SNOs between AURA and NPP Satellite Orbit:

Table of predicted SNOs for the next 14.0 days since TLE Epoch: 10/24/2020
Index Date (AURA) Time (AURA) Lat,Lon (AURA) SZA (AURA ) Date (NPP) Time (NPP) Lat,Lon (NPP) SZA (NPP ) Distance(km) Time Diff (sec)
1 10/26/2020 11:25:03 -79.54, 85.71 75.89 10/26/2020 11:24:37 -79.54, 85.75 75.88 1.00 26
2 10/26/2020 12:14:24 79.72,-105.34 103.88 10/26/2020 12:15:16 79.72,-105.40 103.85 1.34 52
3 10/29/2020 03:41:31 -79.54,-158.38 75.02 10/29/2020 03:41:31 -79.53,-158.52 75.00 3.02 0
4 10/29/2020 04:28:03 80.94, 74.93 96.00 10/29/2020 04:29:15 80.13, 72.76 95.50 98.54 72
5 10/31/2020 19:08:35 79.42, 149.00 105.99 10/31/2020 19:07:43 79.41, 148.94 106.04 1.30 52
6 10/31/2020 19:57:56 -79.65, -41.71 74.33 10/31/2020 19:58:21 -79.66, -41.72 74.34 0.29 25
7 11/03/2020 11:24:59 79.56, -94.13 106.62 11/03/2020 11:24:32 79.57, -94.02 106.62 2.28 27
8 11/03/2020 12:14:21 -79.72, 74.66 73.59 11/03/2020 12:15:12 -79.71, 74.53 73.60 2.95 51
9 11/06/2020 03:41:25 79.58, 21.92 107.39 11/06/2020 03:41:24 79.59, 21.92 107.39 0.22 1
